Theta_e
284 284 284 284 285 284 284 285 286 287 288 288 289 290 291 293 294 294 296 302 301 303 305 305 307 309 310 312 316 317 315 310 308 295 294 295 295 298 297 300 301 305 303
283 283 283 284 284 284 284 286 287 287 288 289 290 289 290 291 293 294 294 299 301 301 304 303 305 307 309 312 314 315 316 317 311 298 288 289 290 290 293 293 292 293 296
283 283 283 283 283 284 285 286 287 287 288 289 289 288 288 289 290 292 293 294 296 300 300 301 301 303 305 310 311 314 315 313 313 301 288 287 287 288 287 286 286 286 289
282 281 282 282 283 284 286 286 286 287 286 286 287 288 288 288 289 290 291 292 291 293 295 294 296 298 299 301 306 311 313 310 305 298 292 288 287 287 288 287 285 286 286
279 279 280 281 283 284 285 286 286 286 286 287 287 287 288 289 289 289 289 289 289 289 289 290 289 287 289 294 298 305 311 309 302 295 288 287 286 286 288 288 285 285 284
278 278 279 281 281 282 283 284 285 285 285 285 286 286 287 287 288 288 287 286 287 286 286 287 288 287 290 291 291 293 294 305 302 296 291 290 288 288 288 288 285 286 284
278 278 279 280 280 280 282 283 282 283 284 285 285 286 285 286 287 287 286 285 285 285 285 285 285 285 286 287 289 289 288 291 294 301 295 293 291 291 289 287 287 285 281
278 278 280 278 279 280 281 281 282 283 283 284 284 285 285 285 287 287 286 285 284 284 285 285 285 284 285 285 285 284 285 287 288 288 292 293 296 295 293 290 285 281 281
278 279 280 280 280 280 280 281 282 282 282 283 284 284 284 284 287 286 285 283 283 283 284 284 285 284 285 284 282 281 280 280 284 288 291 292 292 291 288 286 284 283 279
278 278 279 281 281 280 281 281 282 282 282 282 282 282 284 284 286 286 285 283 282 282 283 284 285 284 284 283 281 280 277 277 278 277 277 278 279 281 284 287 287 284 279
278 279 279 280 281 281 282 282 281 281 281 281 280 280 280 283 284 285 284 282 281 280 280 281 283 285 285 284 283 281 279 279 278 276 275 275 274 273 273 275 277 283 279
277 278 278 279 280 280 280 280 280 280 279 279 279 279 279 279 282 283 283 282 282 279 278 279 280 283 283 283 281 282 281 280 279 275 273 271 271 271 271 271 272 273 273
276 275 276 277 278 278 278 278 279 279 278 277 278 277 277 278 278 279 280 280 280 278 279 279 279 278 277 278 279 278 277 277 277 275 272 271 271 273 274 275 275 274 272
275 275 275 276 277 277 278 278 278 278 277 277 278 278 278 278 278 278 277 277 276 275 276 275 276 276 276 274 273 274 273 273 274 273 272 272 273 273 272 274 273 274 273
275 275 276 276 277 277 278 278 278 278 279 278 278 279 279 278 279 280 279 277 276 275 275 275 275 274 273 272 271 271 272 272 272 272 272 272 271 271 270 271 273 273 272
274 275 276 277 277 277 279 279 281 281 281 281 281 281 282 282 280 280 279 278 277 275 274 273 272 271 270 271 270 270 270 270 271 271 271 270 269 269 268 268 270 270 269
275 275 275 276 277 277 277 277 275 276 277 279 280 280 280 279 278 278 277 277 276 275 272 272 270 270 270 269 269 268 267 267 269 269 269 269 269 268 269 268 268 267 266
274 274 276 276 277 277 276 275 275 275 273 273 274 274 277 277 277 277 274 274 272 271 270 270 269 270 269 269 268 268 267 267 267 267 267 267 268 268 267 267 267 266 266
275 275 275 276 276 276 275 275 274 273 273 272 271 271 267 272 272 273 272 273 271 269 269 268 269 268 268 267 267 267 267 266 266 266 266 266 267 266 265 265 263 263 265
274 273 274 275 274 274 274 273 273 272 272 272 272 272 270 269 272 269 269 269 269 268 268 267 266 266 266 266 266 266 266 266 265 265 265 265 266 266 265 265 266 265 265
274 274 273 274 274 274 274 274 273 272 272 271 272 269 268 271 270 269 268 268 268 267 267 266 265 265 265 265 265 265 265 265 264 264 264 264 264 263 264 264 263 263 263
274 274 273 274 274 273 273 274 273 272 271 270 269 268 273 268 268 267 267 266 265 266 266 265 264 264 264 264 265 265 264 264 263 263 262 262 263 262 263 262 262 262 262
274 273 273 273 273 271 270 271 271 271 271 270 269 268 268 267 267 266 266 264 262 262 262 263 263 261 261 262 264 265 264 263 263 263 262 262 262 262 262 261 260 260 261
273 273 273 272 271 271 271 271 270 268 270 269 268 269 268 267 266 265 264 263 262 261 260 260 262 261 260 261 261 262 262 262 262 262 262 262 261 259 261 259 260 259 259
272 272 272 272 270 271 270 271 270 269 269 269 268 268 268 266 266 265 264 261 261 261 259 259 260 260 259 259 259 259 257 258 259 259 260 261 260 259 259 259 258 258 257
271 271 271 271 270 270 270 269 269 268 268 268 268 267 267 266 266 265 262 260 259 259 260 259 259 258 259 259 259 258 255 258 254 255 259 260 259 258 257 257 256 257 257
Wind_Speed
10 12 12 12 13 13 13 13 13 15 14 13 14 15 15 15 14 12 15 16 19 17 17 16 19 17 12 12 11 10 11 13 10 1 3 4 2 3 2 3 2 4 3
10 11 12 13 12 12 13 13 13 13 12 12 10 11 12 12 12 11 11 8 12 13 13 11 10 9 14 14 10 11 10 13 11 5 2 1 2 3 3 5 4 5 5
10 11 12 12 12 12 12 12 11 10 9 8 8 8 8 9 10 9 9 9 7 6 4 6 8 8 9 7 10 7 8 4 4 6 4 2 1 1 3 4 4 5 6
9 11 11 11 12 11 11 10 9 9 8 8 7 7 8 8 9 8 7 5 3 3 2 6 5 7 6 7 8 9 8 6 5 5 4 4 2 2 2 4 4 6 5
8 9 9 10 10 9 9 9 8 9 8 8 7 6 6 6 5 6 5 4 4 1 4 4 2 5 5 7 5 8 6 5 4 5 4 3 2 4 6 3 5 4 5
6 7 8 9 9 8 8 8 8 8 9 8 8 7 7 6 11 10 5 4 4 5 4 4 4 5 6 12 8 8 9 4 7 5 4 5 6 5 5 8 8 5 3
5 6 7 8 8 8 8 8 8 9 9 9 9 9 8 7 11 9 10 6 5 6 6 5 4 4 6 3 8 11 13 14 10 5 8 5 7 11 12 10 7 5 3
5 7 6 6 7 7 7 8 8 8 9 9 10 9 8 8 13 13 11 6 7 9 8 7 7 7 7 4 6 12 13 16 9 4 4 4 4 12 12 9 10 11 9
4 6 7 6 6 7 7 8 7 8 9 9 9 10 9 10 17 15 9 8 10 11 12 11 9 8 10 11 9 11 12 12 20 29 22 18 17 19 16 14 12 14 4
3 5 6 5 6 6 6 6 6 6 8 8 11 12 13 12 19 19 11 6 11 9 11 11 18 13 19 17 11 10 13 10 10 12 13 16 17 17 13 5 11 13 9
3 3 4 4 4 5 5 5 5 6 6 7 9 10 12 13 15 21 19 10 8 8 9 9 9 22 23 23 19 12 11 9 14 12 11 10 11 12 10 9 10 7 5
3 2 3 3 3 3 3 3 4 4 6 7 7 7 8 10 18 21 21 19 15 10 9 7 10 23 24 23 16 21 19 14 9 11 11 11 10 10 10 10 13 13 12
3 0 1 2 2 3 3 4 3 5 6 6 6 6 7 7 7 16 19 19 18 11 8 13 17 18 20 19 25 21 15 9 9 11 11 10 8 7 7 8 12 14 16
4 3 1 2 2 3 3 4 4 5 5 5 6 6 6 7 7 7 7 7 10 9 10 10 14 17 22 16 11 13 10 9 9 9 9 8 7 7 8 6 7 7 11
5 4 4 3 4 5 5 5 5 5 5 5 5 6 6 7 8 11 10 6 6 7 6 7 7 8 9 9 9 10 9 9 9 8 8 8 7 7 7 6 6 7 9
7 6 5 5 4 4 5 7 12 11 12 10 9 8 6 12 14 14 12 12 9 8 6 7 8 8 9 8 8 8 8 9 8 7 8 7 7 7 7 7 7 8 8
7 8 6 5 5 6 6 6 6 6 11 12 11 9 10 9 9 10 9 13 10 7 7 7 7 7 7 7 7 7 7 6 6 7 7 7 7 7 7 7 7 7 8
8 9 8 7 6 6 5 5 4 3 3 2 6 9 9 8 7 7 7 4 6 8 6 6 6 6 6 6 6 6 6 6 7 7 7 7 6 7 7 7 7 7 8
10 8 7 7 7 6 5 5 4 3 3 2 1 1 4 5 6 8 8 5 5 5 5 5 5 5 5 5 5 5 6 6 5 6 6 6 6 6 7 7 7 7 7
9 10 9 8 7 7 6 6 5 4 3 2 2 1 2 2 3 3 4 3 4 4 4 4 4 4 4 4 4 4 5 5 5 5 5 5 6 6 7 6 6 6 6
9 9 11 8 8 8 7 6 5 5 4 4 3 3 2 1 3 3 3 2 3 3 3 3 3 3 3 3 3 4 4 4 4 5 4 5 5 6 6 6 6 6 6
9 9 9 8 8 8 7 6 5 5 5 4 3 3 6 2 3 4 4 4 4 3 3 4 4 3 3 3 3 3 3 4 4 4 5 4 5 5 5 5 5 5 5
10 10 10 8 8 8 7 7 7 6 6 6 6 6 5 5 5 4 4 4 4 3 3 3 5 4 3 2 2 3 4 4 4 4 5 5 4 5 4 5 5 4 3
11 10 10 9 8 9 8 8 7 7 7 7 7 7 7 6 7 7 6 5 5 4 3 3 3 6 5 4 3 3 2 3 4 5 6 6 5 5 5 4 4 4 4
10 10 10 9 9 9 8 8 7 7 7 6 6 6 6 6 6 6 6 6 6 6 6 5 4 6 7 7 6 6 5 5 5 5 4 5 6 6 4 3 4 3 3
10 10 8 7 8 8 8 8 8 7 7 7 6 6 6 6 6 5 5 5 4 4 5 4 5 6 7 6 7 7 7 8 7 6 5 5 5 5 4 5 6 4 5
Wind_Direction
316 313 308 302 302 300 291 286 283 285 283 277 272 269 272 270 276 275 287 244 237 241 236 237 240 233 234 236 227 233 225 212 268 110 49 24 76 168 122 95 134 147 161
317 314 311 307 311 304 295 294 292 287 285 282 283 279 284 284 283 279 298 276 245 240 215 223 248 231 230 229 229 226 218 214 189 161 113 136 14 35 71 83 60 54 54
323 323 317 319 319 308 308 308 304 294 297 296 294 290 294 294 297 295 299 301 305 254 203 207 237 236 245 243 232 221 214 197 187 139 147 123 57 111 84 60 66 57 49
329 322 319 324 320 315 318 318 318 318 318 320 319 313 304 299 298 302 294 288 314 303 283 41 325 252 253 265 259 244 214 162 154 117 118 113 164 125 109 130 96 51 58
326 316 323 325 323 326 333 336 342 341 340 335 328 323 320 303 309 319 318 334 348 343 79 106 79 11 315 256 261 256 239 179 149 144 126 88 120 148 168 143 87 113 60
325 325 321 327 331 341 345 348 354 357 357 357 354 344 342 340 352 7 13 29 13 24 32 38 38 26 18 49 58 63 38 200 173 155 144 154 171 156 132 147 145 129 134
331 321 330 339 341 347 356 5 7 5 358 2 2 358 359 351 22 37 45 39 40 36 30 23 33 26 36 18 58 55 44 33 29 174 163 169 152 173 144 145 159 99 74
357 333 345 347 343 349 2 12 13 12 12 5 7 6 13 22 37 45 48 54 59 47 38 39 45 40 41 42 78 71 56 43 27 29 64 107 146 159 160 143 129 107 87
355 342 352 350 345 354 8 16 18 20 21 17 11 17 31 38 41 41 39 49 55 52 48 40 39 54 63 69 75 79 69 53 43 56 67 81 102 124 131 127 134 130 119
332 329 336 350 0 358 9 20 17 21 28 25 27 19 29 39 42 43 40 51 53 48 44 44 55 64 65 58 61 68 68 51 55 52 46 47 50 62 62 110 146 133 124
286 314 330 340 359 356 4 14 18 26 31 31 35 29 25 24 43 49 46 47 53 52 45 43 48 61 66 69 67 68 78 78 66 65 61 51 45 43 42 38 45 99 100
265 302 334 337 352 2 8 22 27 29 40 33 33 39 31 23 34 45 52 59 58 62 55 45 49 61 65 65 63 74 79 79 76 71 64 53 48 47 40 50 58 59 57
210 180 359 356 8 30 41 32 40 41 46 43 43 37 29 27 33 40 49 54 57 63 63 67 65 63 61 56 58 56 56 56 66 71 71 62 53 49 65 63 71 79 67
178 152 154 113 87 75 74 59 60 52 51 45 46 47 48 42 34 34 37 42 47 52 48 49 58 61 62 57 52 46 50 54 65 74 73 75 64 57 61 47 66 65 71
178 152 151 136 117 98 84 86 74 55 56 59 49 50 51 51 45 45 45 43 46 54 57 52 48 46 53 52 48 44 42 46 56 63 73 76 71 65 51 37 51 58 73
177 164 166 156 157 138 119 97 67 70 63 72 62 52 48 72 52 44 44 52 61 40 57 60 56 53 53 51 56 58 47 49 53 62 63 63 65 65 67 57 58 68 87
184 166 160 165 164 154 145 142 130 71 53 42 56 72 61 63 56 60 56 62 61 69 72 64 64 58 59 62 62 59 61 51 60 69 76 78 85 84 82 78 78 81 76
184 173 165 172 173 171 166 158 153 158 138 105 41 37 44 44 42 42 46 65 55 51 62 69 69 65 65 71 72 73 70 63 57 58 60 60 63 75 78 76 78 90 93
179 179 174 171 177 170 165 162 165 168 159 158 236 154 29 37 53 52 55 77 94 83 80 84 82 85 86 88 81 73 71 67 67 74 71 70 72 85 84 81 79 77 85
179 174 174 169 170 175 176 181 178 183 184 196 215 313 356 335 30 35 49 71 89 94 91 89 74 72 75 76 81 90 100 96 88 81 77 78 79 89 97 99 92 97 87
175 171 176 176 177 181 185 195 189 183 193 198 196 187 199 233 152 149 139 133 117 112 114 112 109 101 96 97 104 101 94 89 81 90 89 91 93 98 89 91 96 95 98
171 171 177 185 182 181 188 192 189 190 192 195 180 191 183 166 173 169 167 154 143 139 145 148 142 136 137 145 134 123 121 122 121 114 105 97 99 95 92 89 90 86 87
168 169 175 179 188 178 177 184 187 192 192 193 179 175 178 195 193 185 176 156 152 157 156 155 143 147 154 166 162 159 159 164 159 145 141 135 127 121 119 114 114 112 117
165 173 177 178 182 186 186 184 189 190 189 187 188 188 189 186 185 181 169 163 165 166 167 171 167 164 164 173 174 169 144 144 151 161 151 150 142 142 132 130 137 117 122
167 171 174 178 180 188 181 184 185 187 191 193 193 190 186 182 178 176 169 169 170 170 179 179 176 180 181 181 177 172 157 149 162 147 154 157 151 151 138 139 144 138 131
170 173 172 171 181 185 187 185 187 188 191 195 197 195 188 190 184 175 170 168 175 187 180 181 190 193 187 194 190 172 167 171 164 173 160 163 159 161 165 171 176 182 180